Wind_Speed
29 31 33 36 38 37 36 35 34 33 32 31 31 32 33 32 32 32 32 32 32 32 33 34 34 34 33 33 34 34 34 34 33 33 33 34 34 34 34 34 34 34 34
28 28 30 33 36 35 35 35 34 32 32 31 30 31 32 33 34 34 34 34 34 33 34 34 35 36 36 36 36 35 35 35 35 35 35 36 35 35 35 35 35 36 36
26 27 28 32 33 32 33 33 33 33 33 32 31 31 32 32 33 34 34 34 34 33 34 34 35 36 37 37 37 36 36 36 36 36 36 36 36 36 36 36 37 37 38
25 27 27 29 31 30 31 32 32 32 33 32 30 30 30 32 33 33 33 35 35 35 35 36 37 37 37 38 38 38 38 37 37 37 37 37 37 37 37 38 38 39 39
24 25 26 27 29 30 31 31 31 31 32 32 31 31 32 32 32 33 33 34 35 35 36 37 38 38 38 39 38 38 38 38 38 37 37 38 38 39 39 40 40 40 41
24 24 25 26 28 29 30 30 30 31 32 31 31 31 32 32 33 33 34 35 36 37 38 38 38 38 38 38 38 38 38 38 38 38 38 38 39 40 41 41 40 40 41
22 23 23 24 26 27 28 28 28 29 31 31 31 32 33 33 33 34 35 36 36 37 37 37 38 38 39 39 39 39 38 38 38 39 39 40 40 41 41 42 42 41 42
20 22 23 23 24 27 27 27 28 29 30 31 31 32 33 33 34 34 35 36 36 37 36 36 37 38 38 39 40 40 39 39 40 40 40 41 41 41 41 42 43 43 44
18 20 22 23 24 25 26 27 27 28 29 30 32 32 32 33 34 35 36 36 36 36 36 36 37 38 39 40 40 40 41 41 41 42 42 41 41 42 43 44 44 45 46
17 19 20 22 23 25 26 27 27 28 29 30 31 32 32 33 34 35 36 36 37 37 37 38 39 39 39 40 41 42 42 42 43 43 44 44 44 44 44 45 46 47 48
17 19 20 21 22 23 25 26 27 28 29 30 31 32 33 34 35 36 37 38 38 39 39 40 40 40 40 41 41 43 43 44 44 45 45 45 46 47 47 48 48 48 49
17 19 20 21 23 24 25 26 27 28 29 30 32 33 34 35 36 37 39 40 40 41 41 42 42 42 42 43 43 44 45 45 46 46 46 47 47 48 49 49 49 50 50
18 20 21 23 24 25 27 28 29 30 31 32 33 34 36 38 39 40 41 42 42 42 43 43 43 44 44 44 45 45 46 46 46 47 47 48 48 48 49 49 50 50 50
20 22 23 24 25 27 28 29 30 31 32 34 35 37 38 40 41 42 42 42 43 43 44 44 45 45 45 46 46 46 46 47 47 48 48 49 49 49 49 50 50 50 51
22 24 25 26 27 28 29 30 32 33 35 36 38 39 41 41 42 43 43 43 43 44 44 45 45 46 47 47 47 47 47 48 48 48 49 49 50 49 50 50 50 50 51
25 26 28 29 30 31 32 33 34 36 38 39 40 42 43 43 44 44 44 44 44 45 45 45 46 46 47 47 48 48 48 48 49 49 49 49 50 50 50 51 51 51 52
29 29 30 31 32 33 34 35 36 38 39 40 42 43 44 44 44 44 45 45 45 45 46 46 46 46 47 48 48 48 49 49 50 50 50 50 50 50 51 51 52 52 52
32 33 33 34 34 35 36 36 37 39 40 42 42 43 44 44 44 45 45 46 46 46 47 47 47 47 48 49 49 49 49 50 50 50 50 50 50 51 52 52 53 53 53
35 35 36 37 37 37 38 39 40 41 42 43 43 44 45 45 45 45 45 46 46 47 47 47 47 48 48 49 49 50 50 50 51 51 51 51 51 52 53 53 54 54 54
37 38 39 39 39 40 40 41 42 43 44 44 45 45 46 46 46 46 46 47 47 47 47 47 48 49 49 50 50 50 50 50 50 50 51 51 52 52 53 53 54 54 54
40 40 40 41 41 42 42 43 44 44 45 46 46 46 46 46 47 47 48 48 48 48 48 48 49 49 50 50 50 50 50 50 50 50 51 51 51 52 53 53 53 53 53
42 42 42 42 43 43 44 44 45 46 47 47 47 47 47 48 48 48 49 49 50 50 50 49 49 50 50 50 50 50 50 50 50 50 50 51 51 51 52 52 52 52 53
43 44 44 44 45 46 46 46 47 47 47 47 47 48 48 48 49 49 49 50 50 51 50 50 50 50 50 50 50 51 51 51 51 51 50 51 51 51 51 51 51 51 51
45 45 45 46 46 47 47 48 48 48 47 47 48 48 49 49 48 48 49 49 50 50 50 50 50 50 50 50 50 50 51 51 51 51 51 51 51 51 51 51 50 50 50
46 46 47 46 46 47 47 48 48 48 48 48 48 48 48 48 48 48 48 49 49 49 49 49 50 49 49 49 49 49 49 49 49 50 50 50 50 50 50 50 49 48 48
46 46 47 47 47 47 47 48 48 48 48 48 48 48 48 48 48 48 48 48 48 48 48 48 48 48 48 48 48 48 48 48 48 49 49 49 49 49 48 48 47 47 46
Wind_Direction
206 211 211 211 212 214 216 218 220 223 227 231 235 238 240 241 242 246 249 252 256 258 260 261 262 263 265 269 272 274 275 275 277 278 278 278 279 279 279 280 280 281 282
209 208 209 213 214 215 216 220 222 225 229 233 238 241 243 246 250 253 254 257 260 261 262 264 265 265 266 269 272 273 275 276 277 277 278 278 278 278 278 279 281 281 282
213 214 213 214 217 219 219 224 228 230 232 237 243 246 248 251 255 257 259 260 262 264 265 265 265 266 267 269 271 272 274 276 278 279 280 279 278 278 278 279 280 281 281
211 211 214 215 217 220 222 227 230 234 237 240 243 247 251 253 255 258 260 262 264 266 267 268 267 268 269 270 271 272 274 276 277 279 279 279 278 277 277 279 280 280 281
209 209 213 217 219 221 224 229 234 238 241 244 247 251 254 256 259 261 262 264 266 266 267 267 268 269 270 269 269 272 274 275 276 277 277 278 278 278 279 279 279 280 281
208 211 214 218 221 225 228 232 236 242 246 249 252 254 256 259 261 264 265 267 268 268 269 270 270 268 268 270 269 271 272 274 275 276 276 278 279 280 281 281 280 281 282
215 216 215 218 224 229 231 235 239 243 247 249 254 256 257 259 262 264 267 269 270 270 270 271 270 269 270 271 270 270 272 273 275 276 277 278 279 280 281 281 280 280 281
220 222 221 221 227 231 233 240 243 246 249 252 256 258 259 262 264 266 267 269 269 269 270 270 270 270 270 270 270 270 272 273 275 277 277 278 278 279 280 280 280 280 280
225 227 227 226 231 233 238 245 247 250 255 259 260 261 263 264 266 267 269 269 270 270 269 269 270 270 270 270 271 271 272 274 275 276 277 278 279 279 280 280 280 280 280
234 233 235 233 236 239 244 248 251 254 258 261 263 265 265 266 267 269 270 271 271 271 272 272 271 271 270 271 271 272 272 274 275 276 277 277 278 279 280 281 281 282 282
242 243 244 241 242 245 248 251 254 257 259 262 263 266 267 269 270 272 273 273 273 273 273 272 271 270 271 271 272 273 273 274 275 277 278 279 279 279 280 281 283 284 284
251 252 253 252 250 251 252 255 256 258 261 264 266 268 269 270 271 272 273 273 274 274 274 272 271 270 271 271 272 274 275 275 276 277 278 280 281 281 281 282 283 284 285
260 259 259 259 256 256 258 259 260 262 264 266 269 271 272 272 273 274 274 274 274 274 274 273 272 271 271 272 273 274 275 276 277 278 280 281 281 281 281 282 283 284 285
265 265 263 263 263 262 262 263 264 266 268 270 272 274 275 275 275 275 275 275 275 275 274 274 273 272 272 272 273 274 275 276 278 279 279 281 281 281 282 282 283 284 285
269 269 268 268 266 265 266 267 268 270 271 273 275 277 277 277 277 276 275 275 276 276 275 275 274 274 274 274 274 274 275 276 277 278 280 280 281 281 281 282 283 284 285
271 271 271 271 269 268 268 269 270 271 272 274 275 276 277 277 277 277 277 276 277 276 276 275 275 275 275 274 274 274 275 275 277 278 279 280 280 281 281 282 283 284 285
273 273 272 272 271 270 270 271 272 274 275 275 276 277 277 277 277 277 277 277 276 276 276 276 275 275 275 275 275 275 275 276 277 277 278 279 280 281 282 283 283 284 284
273 272 271 271 271 271 271 271 272 274 275 276 277 277 277 277 277 277 277 276 276 276 276 276 276 275 275 275 275 276 277 277 277 278 279 279 280 281 282 282 283 283 284
273 272 271 271 271 271 271 271 273 274 275 276 277 277 277 277 277 277 277 277 276 277 277 276 276 275 276 276 276 276 277 277 278 279 279 279 280 281 281 282 283 284 284
275 274 273 272 272 272 272 273 274 275 276 277 277 277 277 277 277 277 277 277 276 276 276 276 276 276 276 276 277 277 278 278 278 279 279 280 280 281 282 283 283 284 284
276 275 274 273 273 273 273 274 275 276 277 277 277 277 277 277 276 276 276 276 276 276 276 276 276 277 276 277 277 278 278 278 279 279 279 280 281 282 283 283 284 284 284
276 276 275 275 275 275 275 275 275 276 277 277 278 278 278 277 277 277 277 277 277 276 276 276 277 277 277 277 277 278 278 279 279 280 280 281 282 283 284 285 285 285 285
276 275 275 276 276 277 277 277 277 277 277 278 278 278 278 278 278 278 278 277 277 277 277 277 277 277 277 277 277 277 278 279 279 280 281 282 283 283 284 285 286 286 285
275 276 276 276 277 277 277 277 277 278 278 278 278 279 279 279 279 278 278 278 278 277 277 277 277 276 276 277 277 277 278 279 279 280 281 282 283 284 285 285 286 286 285
277 276 277 277 277 278 278 277 278 278 278 279 279 279 279 278 278 278 278 278 277 277 277 277 277 277 277 277 278 278 278 279 280 281 282 283 284 284 284 285 285 285 285
278 278 278 278 278 279 279 279 279 279 279 280 279 279 279 279 278 278 278 277 277 277 277 277 277 278 278 278 278 278 278 279 280 281 283 283 284 284 284 284 284 284 285
Height
5720 5725 5730 5736 5742 5747 5753 5757 5762 5766 5769 5772 5774 5777 5779 5781 5784 5787 5788 5790 5791 5792 5793 5794 5795 5795 5796 5796 5796 5795 5795 5794 5794 5793 5792 5791 5790 5788 5787 5786 5785 5783 5782
5718 5723 5728 5733 5739 5744 5749 5753 5757 5761 5764 5767 5769 5771 5773 5776 5778 5780 5782 5783 5784 5785 5786 5787 5787 5788 5788 5788 5788 5788 5787 5787 5786 5785 5784 5783 5783 5780 5779 5778 5777 5775 5774
5716 5721 5725 5730 5735 5740 5744 5749 5753 5756 5759 5762 5765 5767 5768 5770 5772 5774 5775 5776 5778 5778 5778 5779 5779 5780 5780 5780 5780 5780 5779 5779 5778 5777 5776 5775 5774 5773 5771 5770 5768 5767 5765
5713 5718 5723 5727 5732 5736 5740 5744 5748 5752 5755 5757 5759 5761 5763 5765 5766 5767 5768 5769 5770 5771 5771 5771 5771 5771 5771 5771 5771 5771 5771 5770 5769 5769 5767 5766 5765 5764 5763 5761 5759 5757 5756
5710 5715 5720 5724 5729 5732 5736 5740 5743 5747 5750 5752 5753 5755 5757 5758 5760 5760 5761 5762 5762 5762 5762 5762 5762 5763 5763 5762 5762 5762 5761 5761 5760 5759 5758 5757 5756 5754 5754 5752 5750 5748 5746
5708 5712 5716 5721 5725 5729 5732 5736 5739 5741 5744 5746 5747 5749 5750 5751 5752 5753 5754 5754 5754 5754 5754 5754 5753 5753 5753 5753 5752 5752 5752 5751 5750 5749 5748 5747 5746 5745 5743 5742 5740 5738 5736
5706 5709 5713 5718 5722 5725 5728 5731 5733 5736 5738 5739 5741 5742 5743 5744 5745 5745 5745 5745 5745 5745 5745 5744 5744 5744 5744 5743 5743 5742 5742 5741 5740 5739 5738 5737 5736 5734 5733 5731 5730 5728 5725
5704 5707 5711 5714 5718 5721 5723 5726 5728 5730 5731 5733 5734 5735 5736 5736 5736 5737 5737 5736 5736 5736 5735 5735 5734 5734 5734 5733 5732 5732 5731 5731 5730 5729 5728 5726 5725 5723 5722 5720 5718 5717 5714
5701 5704 5707 5710 5713 5715 5718 5720 5721 5723 5724 5726 5727 5727 5727 5727 5728 5728 5728 5727 5727 5726 5726 5725 5725 5724 5723 5723 5722 5721 5721 5720 5719 5718 5717 5715 5714 5712 5710 5709 5707 5705 5703
5698 5700 5702 5705 5708 5710 5712 5714 5715 5717 5718 5719 5719 5719 5719 5719 5719 5719 5718 5718 5717 5717 5716 5716 5715 5714 5713 5712 5712 5711 5710 5709 5708 5707 5705 5704 5702 5700 5698 5697 5694 5692 5690
5695 5697 5699 5701 5702 5704 5706 5708 5709 5710 5711 5711 5711 5711 5711 5710 5710 5709 5709 5708 5707 5707 5706 5705 5704 5703 5703 5702 5701 5700 5699 5698 5697 5695 5694 5692 5690 5688 5686 5684 5682 5679 5677
5692 5693 5695 5696 5697 5698 5700 5701 5702 5702 5703 5703 5703 5703 5702 5702 5701 5700 5699 5698 5697 5696 5695 5694 5693 5692 5691 5691 5690 5689 5687 5686 5685 5683 5682 5680 5678 5676 5673 5671 5668 5666 5663
5688 5689 5690 5690 5691 5692 5693 5694 5694 5694 5695 5694 5694 5693 5692 5691 5690 5689 5688 5687 5685 5684 5683 5682 5681 5680 5679 5678 5677 5676 5675 5674 5672 5671 5669 5667 5665 5663 5660 5658 5655 5653 5650
5683 5683 5684 5684 5685 5685 5685 5685 5685 5685 5685 5685 5684 5683 5682 5681 5679 5678 5676 5675 5673 5672 5671 5670 5669 5668 5667 5666 5664 5663 5662 5661 5659 5658 5656 5654 5652 5649 5647 5644 5642 5639 5636
5676 5677 5677 5677 5677 5677 5676 5676 5676 5676 5675 5675 5674 5672 5671 5670 5668 5666 5664 5663 5661 5660 5658 5657 5656 5655 5654 5653 5651 5650 5649 5648 5646 5645 5643 5640 5638 5636 5633 5631 5628 5626 5623
5669 5669 5669 5669 5668 5668 5667 5667 5666 5666 5665 5664 5663 5661 5659 5658 5656 5654 5652 5650 5649 5647 5645 5644 5643 5642 5640 5639 5638 5637 5636 5634 5633 5631 5629 5627 5625 5622 5620 5617 5614 5612 5609
5660 5659 5659 5658 5658 5658 5657 5657 5656 5655 5654 5652 5651 5649 5647 5645 5643 5641 5639 5638 5636 5634 5632 5631 5630 5628 5627 5625 5624 5623 5622 5621 5619 5617 5615 5613 5611 5608 5606 5603 5601 5598 5594
5650 5649 5648 5648 5647 5647 5646 5645 5644 5643 5642 5640 5638 5636 5634 5632 5630 5628 5626 5624 5623 5621 5619 5618 5616 5615 5613 5612 5610 5609 5608 5606 5605 5603 5601 5599 5596 5594 5591 5589 5586 5583 5579
5639 5638 5638 5637 5636 5635 5634 5633 5632 5631 5629 5627 5625 5623 5621 5619 5617 5615 5613 5611 5609 5607 5606 5604 5602 5601 5599 5598 5596 5595 5594 5592 5590 5588 5586 5584 5582 5579 5576 5574 5571 5568 5564
5627 5626 5625 5625 5624 5623 5622 5621 5619 5618 5616 5613 5611 5609 5607 5605 5603 5601 5599 5597 5595 5594 5592 5590 5588 5586 5585 5583 5582 5580 5579 5578 5576 5574 5572 5569 5567 5564 5561 5558 5556 5553 5549
5615 5614 5613 5612 5611 5610 5609 5608 5606 5604 5602 5599 5597 5595 5593 5591 5589 5587 5585 5583 5581 5580 5578 5576 5574 5572 5570 5569 5567 5566 5564 5563 5561 5560 5557 5554 5552 5549 5546 5543 5540 5537 5534
5603 5601 5600 5599 5597 5596 5595 5594 5592 5590 5588 5586 5583 5581 5579 5577 5575 5573 5571 5569 5567 5565 5563 5561 5560 5558 5556 5554 5552 5551 5549 5548 5546 5545 5542 5539 5537 5534 5531 5528 5525 5521 5518
5590 5588 5587 5585 5584 5582 5581 5579 5577 5575 5573 5571 5569 5567 5565 5562 5560 5558 5556 5554 5552 5550 5548 5547 5545 5543 5541 5539 5538 5536 5534 5533 5531 5529 5527 5524 5522 5519 5516 5513 5509 5506 5503
5576 5574 5573 5572 5570 5568 5566 5564 5562 5560 5558 5557 5554 5552 5550 5548 5546 5543 5541 5539 5537 5535 5534 5532 5530 5529 5527 5525 5523 5521 5520 5518 5516 5514 5512 5509 5507 5504 5501 5498 5494 5491 5488
5562 5560 5559 5557 5555 5553 5551 5549 5547 5545 5543 5541 5539 5537 5535 5533 5531 5529 5526 5524 5522 5520 5519 5517 5515 5514 5512 5510 5508 5506 5505 5503 5501 5499 5497 5494 5491 5489 5486 5483 5480 5477 5474
5547 5546 5544 5542 5541 5539 5537 5534 5532 5530 5528 5526 5524 5522 5520 5518 5516 5514 5512 5510 5508 5506 5504 5502 5501 5499 5497 5495 5493 5491 5490 5487 5485 5483 5482 5479 5476 5474 5471 5468 5466 5463 5460